Find Local Weather

World > North America > United States > Idaho

Grays Lake National Wildlife Refuge, Idaho Regional Weather

Lat: 43.06N, Lon: 111.43W
Wx Zone: IDZ023
Feedback
Expires:201807201300;;767462
ASUS45 KBOI 201210
RWRID 

IDAHO REGIONAL WEATHER ROUNDUP
NATIONAL WEATHER SERVICE BOISE ID
600 AM MDT FRI JUL 20 2018

NOTE: "FAIR" INDICATES FEW OR NO CLOUDS BELOW 12000 FEET
WITH NO SIGNIFICANT WEATHER AND/OR OBSTRUCTIONS TO VISIBILITY


IDZ019>023-201300-
SOUTHEAST IDAHO

  
CITY           SKY/WX    TMP DP  RH WIND       PRES   REMARKS
IDAHO FALLS    CLEAR     49  42  77 N5        30.10R                  
POCATELLO      PTCLDY    51  39  63 N3        30.06R                  
REXBURG        CLEAR     50  42  74 NE5       30.11R                  
$$


SKY/WX - Weather  TMP - Temperature  DP - Dewpoint  RH - Relative Humidity
WIND - Wind Direction/Speed PRES - Barometric Pressure